Hourly Weather Golany

Today, 7 May, Friday

Time Temperature Precipitation Wind Pressure Humidity
00:00 +2°C° 0 mm 3 mps 742 mmHg 88%
01:00 +3°C° 0 mm 2 mps 742 mmHg 90%
02:00 +4°C° 0 mm 2 mps 742 mmHg 90%
03:00 +4°C° 0 mm 2 mps 742 mmHg 90%
04:00 +4°C° 0 mm 2 mps 741 mmHg 90%
05:00 +5°C° 0.2 mm 2 mps 741 mmHg 89%
06:00 +6°C° 0.2 mm 2 mps 742 mmHg 88%
07:00 +6°C° 0.2 mm 2 mps 742 mmHg 87%
08:00 +7°C° 0.3 mm 2 mps 741 mmHg 86%
09:00 +7°C° 0.3 mm 2 mps 741 mmHg 84%
10:00 +7°C° 0.3 mm 2 mps 741 mmHg 83%
11:00 +7°C° 0.2 mm 2 mps 741 mmHg 83%
12:00 +7°C° 0.2 mm 2 mps 741 mmHg 83%
13:00 +7°C° 0.2 mm 2 mps 741 mmHg 83%
14:00 +7°C° 0.2 mm 2 mps 741 mmHg 82%
15:00 +8°C° 0.2 mm 2 mps 741 mmHg 81%
16:00 +9°C° 0.2 mm 1 mps 741 mmHg 80%
17:00 +7°C° 1.2 mm 2 mps 742 mmHg 85%
18:00 +6°C° 1.2 mm 2 mps 742 mmHg 90%
19:00 +4°C° 1.2 mm 3 mps 742 mmHg 94%
20:00 +3°C° 3 mm 4 mps 743 mmHg 95%
21:00 +1°C° 3 mm 5 mps 744 mmHg 95%
22:00 0°C° 3 mm 5 mps 745 mmHg 96%
23:00 +1°C° 0.8 mm 5 mps 745 mmHg 96%

Tomorrow, 8 May, Saturday

Time Temperature Precipitation Wind Pressure Humidity
00:00 +1°C° 0.8 mm 5 mps 745 mmHg 95%
01:00 +1°C° 0.8 mm 4 mps 746 mmHg 95%
02:00 +1°C° 0 mm 4 mps 746 mmHg 95%
03:00 0°C° 0 mm 4 mps 747 mmHg 96%
04:00 -1°C° 0 mm 4 mps 747 mmHg 96%
05:00 0°C° 0 mm 4 mps 748 mmHg 95%
06:00 +1°C° 0 mm 4 mps 748 mmHg 94%
07:00 +1°C° 0 mm 4 mps 749 mmHg 93%
08:00 +3°C° 0 mm 5 mps 749 mmHg 84%
09:00 +6°C° 0 mm 5 mps 749 mmHg 75%
10:00 +7°C° 0 mm 5 mps 750 mmHg 66%
11:00 +8°C° 0.2 mm 5 mps 750 mmHg 66%
12:00 +8°C° 0.2 mm 6 mps 750 mmHg 65%
13:00 +8°C° 0.2 mm 6 mps 750 mmHg 65%
14:00 +8°C° 0.4 mm 6 mps 750 mmHg 67%
15:00 +8°C° 0.4 mm 6 mps 750 mmHg 68%
16:00 +8°C° 0.4 mm 6 mps 751 mmHg 69%
17:00 +7°C° 0.1 mm 5 mps 751 mmHg 73%
18:00 +7°C° 0.1 mm 3 mps 751 mmHg 77%
19:00 +5°C° 0.1 mm 2 mps 751 mmHg 81%
20:00 +6°C° 0 mm 1 mps 752 mmHg 81%
21:00 +5°C° 0 mm 1 mps 752 mmHg 82%
22:00 +4°C° 0 mm 1 mps 752 mmHg 83%
23:00 +3°C° 0 mm 2 mps 753 mmHg 84%

Day after tomorrow, 9 May, Sunday

Time Temperature Precipitation Wind Pressure Humidity
00:00 +3°C° 0 mm 2 mps 753 mmHg 85%
01:00 +2°C° 0 mm 3 mps 753 mmHg 86%
02:00 +1°C° 0 mm 3 mps 753 mmHg 87%
03:00 +1°C° 0 mm 3 mps 753 mmHg 88%
04:00 +1°C° 0 mm 3 mps 753 mmHg 88%
05:00 +3°C° 0 mm 3 mps 753 mmHg 84%
06:00 +5°C° 0 mm 4 mps 753 mmHg 79%
07:00 +7°C° 0 mm 5 mps 753 mmHg 75%
08:00 +9°C° 0 mm 5 mps 753 mmHg 70%
09:00 +10°C° 0 mm 6 mps 753 mmHg 64%
10:00 +13°C° 0 mm 6 mps 752 mmHg 59%
11:00 +14°C° 0 mm 6 mps 752 mmHg 58%
12:00 +15°C° 0 mm 7 mps 752 mmHg 56%
13:00 +16°C° 0 mm 7 mps 752 mmHg 55%
14:00 +16°C° 0 mm 6 mps 752 mmHg 57%
15:00 +17°C° 0 mm 6 mps 751 mmHg 60%
16:00 +17°C° 0 mm 5 mps 751 mmHg 63%
17:00 +15°C° 0 mm 5 mps 751 mmHg 68%
18:00 +13°C° 0 mm 4 mps 751 mmHg 74%
19:00 +12°C° 0 mm 4 mps 751 mmHg 79%
20:00 +11°C° 0 mm 4 mps 751 mmHg 79%
21:00 +10°C° 0 mm 4 mps 751 mmHg 79%
22:00 +10°C° 0 mm 4 mps 751 mmHg 78%
23:00 +8°C° 0 mm 4 mps 751 mmHg 82%

10 May, Monday

Time Temperature Precipitation Wind Pressure Humidity
00:00 +8°C° 0 mm 4 mps 751 mmHg 86%
01:00 +7°C° 0 mm 4 mps 751 mmHg 90%
02:00 +7°C° 0 mm 4 mps 751 mmHg 90%
03:00 +6°C° 0 mm 4 mps 751 mmHg 89%
04:00 +6°C° 0 mm 5 mps 751 mmHg 89%
05:00 +8°C° 0 mm 5 mps 751 mmHg 84%
06:00 +9°C° 0 mm 6 mps 751 mmHg 78%
07:00 +11°C° 0 mm 6 mps 751 mmHg 73%
08:00 +14°C° 0 mm 7 mps 751 mmHg 69%
09:00 +15°C° 0 mm 7 mps 751 mmHg 64%
10:00 +17°C° 0 mm 8 mps 751 mmHg 59%
11:00 +18°C° 0 mm 8 mps 751 mmHg 59%
12:00 +20°C° 0 mm 8 mps 750 mmHg 59%
13:00 +21°C° 0 mm 8 mps 750 mmHg 59%
14:00 +21°C° 0 mm 8 mps 750 mmHg 61%
15:00 +21°C° 0 mm 8 mps 750 mmHg 62%
16:00 +21°C° 0 mm 7 mps 749 mmHg 63%
17:00 +18°C° 0 mm 7 mps 750 mmHg 68%
18:00 +17°C° 0 mm 6 mps 750 mmHg 73%
19:00 +16°C° 0 mm 5 mps 750 mmHg 78%
20:00 +15°C° 0 mm 5 mps 750 mmHg 79%
21:00 +14°C° 0 mm 5 mps 750 mmHg 81%
22:00 +13°C° 0 mm 5 mps 750 mmHg 82%
23:00 +13°C° 0 mm 5 mps 750 mmHg 85%

11 May, Tuesday

Time Temperature Precipitation Wind Pressure Humidity
00:00 +12°C° 0 mm 5 mps 750 mmHg 88%
01:00 +10°C° 0 mm 5 mps 750 mmHg 91%
02:00 +10°C° 0 mm 5 mps 750 mmHg 90%
03:00 +9°C° 0 mm 5 mps 750 mmHg 89%
04:00 +9°C° 0 mm 6 mps 750 mmHg 88%
05:00 +10°C° 0 mm 6 mps 750 mmHg 84%
06:00 +11°C° 0 mm 6 mps 750 mmHg 80%
07:00 +12°C° 0 mm 7 mps 750 mmHg 77%
08:00 +15°C° 0 mm 7 mps 749 mmHg 72%
09:00 +17°C° 0 mm 8 mps 749 mmHg 68%
10:00 +18°C° 0 mm 8 mps 749 mmHg 64%
11:00 +20°C° 0 mm 8 mps 749 mmHg 63%
12:00 +21°C° 0 mm 8 mps 749 mmHg 63%
13:00 +22°C° 0 mm 8 mps 748 mmHg 63%
14:00 +22°C° 0 mm 8 mps 748 mmHg 64%
15:00 +22°C° 0 mm 8 mps 748 mmHg 66%
16:00 +21°C° 0 mm 8 mps 748 mmHg 67%
17:00 +20°C° 0 mm 8 mps 748 mmHg 69%
18:00 +18°C° 0 mm 8 mps 748 mmHg 71%
19:00 +16°C° 0 mm 8 mps 748 mmHg 73%
20:00 +15°C° 0 mm 7 mps 748 mmHg 72%
21:00 +15°C° 0 mm 7 mps 748 mmHg 72%
22:00 +14°C° 0 mm 7 mps 748 mmHg 71%
23:00 +13°C° 0 mm 6 mps 747 mmHg 71%

12 May, Wednesday

Time Temperature Precipitation Wind Pressure Humidity
00:00 +13°C° 0 mm 6 mps 747 mmHg 71%
01:00 +11°C° 0 mm 6 mps 747 mmHg 71%
02:00 +11°C° 0 mm 6 mps 747 mmHg 73%
03:00 +10°C° 0 mm 6 mps 746 mmHg 76%
04:00 +10°C° 0 mm 6 mps 746 mmHg 78%
05:00 +11°C° 0 mm 7 mps 746 mmHg 78%
06:00 +12°C° 0 mm 7 mps 746 mmHg 79%
07:00 +15°C° 0 mm 7 mps 746 mmHg 79%
08:00 +16°C° 0 mm 8 mps 746 mmHg 74%
09:00 +18°C° 0 mm 8 mps 746 mmHg 70%
10:00 +20°C° 0 mm 8 mps 745 mmHg 65%
11:00 +21°C° 0 mm 8 mps 745 mmHg 64%
12:00 +22°C° 0 mm 9 mps 745 mmHg 64%
13:00 +23°C° 0 mm 9 mps 745 mmHg 63%
14:00 +23°C° 0 mm 8 mps 744 mmHg 65%
15:00 +22°C° 0 mm 8 mps 744 mmHg 66%
16:00 +22°C° 0 mm 8 mps 744 mmHg 68%
17:00 +20°C° 0 mm 8 mps 744 mmHg 71%
18:00 +18°C° 0 mm 8 mps 743 mmHg 74%
19:00 +16°C° 0 mm 7 mps 743 mmHg 78%
20:00 +16°C° 0 mm 7 mps 743 mmHg 80%
21:00 +15°C° 0 mm 7 mps 743 mmHg 82%
22:00 +14°C° 0 mm 7 mps 743 mmHg 84%
23:00 +14°C° 0 mm 7 mps 743 mmHg 86%
Show more